{"data":{"norad_id":62401,"epoch":"2026-09-22T21:15:58.836960Z","epoch_age_seconds":105979,"freshness":"FRESH","line1":"1 62401U 24247AA  26265.88609765  .00012769  00000+0  29332-3 0  9998","line2":"2 62401  44.9711  85.4022 0005115 191.0232 169.0545 15.42734534 98298","mean_motion":15.42734534,"eccentricity":0.0005115,"inclination_deg":44.9711,"raan_deg":85.4022,"arg_perigee_deg":191.0232,"mean_anomaly_deg":169.0545,"bstar":0.00029332,"rev_number":9829,"period_min":93.340751001818,"perigee_km":434.55636418795,"apogee_km":441.52931616445,"semimajor_km":6816.1798401762,"source":"CELESTRAK","updated_at":"2026-09-23T09:00:21.396671Z"}}